Location: Autingues
(50.8400°N, 1.9737°E)
Time: 12:02:34
(UTC+00:00)

NOSS 0 Rocket - Pass Details

Date: 15 May 2026
Orbit: 936 x 952 km, 70.0° (Epoch: 5 June)

Event Time Altitude Azimuth Distance (km) Brightness Sun altitude
Rises 23:19:44 0° 326° (NNW) 3,617 8.1 -19.8°
Reaches altitude 10° 23:22:18 10° 324° (NW) 2,666 7.2 -19.9°
Maximum altitude 23:28:22 62° 245° (WSW) 1,053 4.0 -20.0°
Enters shadow 23:30:48 36° 181° (S) 1,439 4.3 -20.0°
